Weather History for KMGJ - October, 2013

Change the Weather History Date:

Wednesday, October 2, 2013

  Actual Average (KPOU) Record (KPOU)
Temperature  
Mean Temperature 67 °F 56 °F  
Max Temperature 82 °F 68 °F 84 °F (1954)
Min Temperature 53 °F 44 °F 31 °F (1960)
Degree Days  
Heating Degree Days 0 9  
Month to date heating degree days 18  
Since 1 July heating degree days 158  
Cooling Degree Days 2 0  
Month to date cooling degree days 0  
Year to date cooling degree days 668  
Growing Degree Days 17 (Base 50)    
Moisture  
Dew Point 55 °F    
Average Humidity 80    
Maximum Humidity 97    
Minimum Humidity 46    
Precipitation  
Precipitation 0.01 in 0.15 in 0.78 in (2012)
Month to date precipitation 0.30  
Year to date precipitation 35.36  
Sea Level Pressure  
Sea Level Pressure 29.96 in    
Wind  
Wind Speed 3 mph (WSW)    
Max Wind Speed 13 mph    
Max Gust Speed 18 mph    
Visibility 8 miles    
Events      
T = Trace of Precipitation, MM = Missing Value Source: NWS Daily Summary

Daily Weather History Graph

Daily Weather History Graph

Search for Another Location

Airport or City:

Trip Planner

Search our weather history database for the weather conditions in past years. The results will help you decide how hot, cold, wet, or windy it might be!

Date:

Astronomy

Oct. 02, 2013 Rise Set
Actual Time 6:55 AM EDT 6:36 PM EDT
Civil Twilight 6:27 AM EDT 7:04 PM EDT
Nautical Twilight 5:55 AM EDT 7:36 PM EDT
Astronomical Twilight 5:22 AM EDT 8:08 PM EDT
Moon 4:24 AM EDT (10/2) 5:12 PM EDT (10/2)
Length of Visible Light 12h 36m
Length of Day
11h 41m
Waning Crescent, 6% of the Moon is Illuminated
Oct 2
Waning Crescent
Oct 4
New
Oct 11
First Quarter
Oct 18
Full
Oct 26
Last Quarter

Hourly Weather History & Observations

Time (EDT) Temp. Heat Index Dew Point Humidity Pressure Visibility Wind Dir Wind Speed Gust Speed Precip Events Conditions
12:54 AM 54.0 °F - 52.0 °F 93% 29.96 in 5.0 mi Calm Calm - N/A   Clear
1:00 AM 53.6 °F - 51.8 °F 94% 29.96 in 1.8 mi Calm Calm - N/A   Clear
1:11 AM 53.6 °F - 51.8 °F 94% 29.96 in 4.0 mi Calm Calm - N/A   Clear
1:15 AM 53.6 °F - 51.8 °F 94% 29.96 in 1.8 mi Calm Calm - N/A   Clear
1:23 AM 53.6 °F - 51.8 °F 94% 29.96 in 3.0 mi Calm Calm - N/A   Clear
1:54 AM 53.1 °F - 51.1 °F 93% 29.96 in 6.0 mi Calm Calm - N/A   Clear
2:54 AM 55.0 °F - 53.1 °F 93% 29.96 in 8.0 mi SSW 4.6 mph - 0.00 in   Clear
3:54 AM 54.0 °F - 52.0 °F 93% 29.96 in 6.0 mi SSW 3.5 mph - N/A   Clear
4:54 AM 53.1 °F - 51.1 °F 93% 29.96 in 9.0 mi SSW 8.1 mph - N/A   Clear
5:54 AM 54.0 °F - 52.0 °F 93% 29.96 in 7.0 mi SSW 3.5 mph - N/A   Clear
6:54 AM 54.0 °F - 52.0 °F 93% 29.97 in 9.0 mi Calm Calm - 0.01 in   Clear
7:46 AM 53.6 °F - 51.8 °F 94% 29.97 in 5.0 mi Calm Calm - N/A   Scattered Clouds
7:54 AM 54.0 °F - 52.0 °F 93% 29.98 in 6.0 mi Calm Calm - N/A   Partly Cloudy
8:54 AM 62.1 °F - 55.9 °F 80% 29.99 in 10.0 mi SW 5.8 mph - N/A   Clear
9:54 AM 66.0 °F - 57.0 °F 73% 29.99 in 10.0 mi SSW 8.1 mph - N/A   Unknown
10:54 AM 71.1 °F - 59.0 °F 66% 29.97 in 10.0 mi SSW 8.1 mph - N/A   Clear
11:54 AM 75.9 °F - 60.1 °F 58% 29.95 in 10.0 mi West 6.9 mph 16.1 mph N/A   Clear
12:54 PM 78.1 °F - 60.1 °F 54% 29.94 in 10.0 mi West 12.7 mph 18.4 mph N/A   Clear
1:54 PM 80.1 °F 80.9 °F 60.1 °F 50% 29.93 in 10.0 mi West 12.7 mph 17.3 mph N/A   Scattered Clouds
2:54 PM 80.1 °F 80.9 °F 60.1 °F 50% 29.92 in 10.0 mi NW 10.4 mph - N/A   Mostly Cloudy
3:54 PM 81.0 °F 81.6 °F 60.1 °F 49% 29.92 in 10.0 mi WNW 8.1 mph - N/A   Clear
4:54 PM 80.1 °F 81.1 °F 61.0 °F 52% 29.92 in 10.0 mi West 6.9 mph - N/A   Partly Cloudy
5:54 PM 78.1 °F - 55.9 °F 46% 29.93 in 10.0 mi WNW 8.1 mph 17.3 mph N/A   Clear
6:54 PM 69.1 °F - 57.9 °F 68% 29.95 in 10.0 mi WNW 4.6 mph - N/A   Clear
7:54 PM 64.0 °F - 57.9 °F 80% 29.97 in 10.0 mi Calm Calm - N/A   Clear
8:54 PM 59.0 °F - 55.9 °F 90% 29.99 in 10.0 mi Calm Calm - N/A   Clear
9:54 PM 57.9 °F - 55.0 °F 90% 30.00 in 10.0 mi Calm Calm - N/A   Clear
10:54 PM 57.0 °F - 54.0 °F 89% 30.01 in 9.0 mi SSW 3.5 mph - N/A   Clear
11:54 PM 54.0 °F - 53.1 °F 97% 30.03 in 7.0 mi Calm Calm - N/A   Clear